This is the latest recevied weather packets stored in our database for station/object SQ9NFI-4. If no packets are shown the sender has not sent any weather packets the latest 10 day(s).
| Time | Temp. | Humidity | Pressure | Rain* | Wind** | Luminosity | Snow |
|---|---|---|---|---|---|---|---|
| 1777996777 | 27.78° C | 14% | 1007.8 hPa | 0 mm | - | 138 W/m² | - |
| 1777996477 | 27.78° C | 13% | 1007.8 hPa | 0 mm | - | 143 W/m² | - |
| 1777996177 | 27.78° C | 14% | 1007.8 hPa | 0 mm | - | 161 W/m² | - |
| 1777995877 | 27.78° C | 14% | 1007.8 hPa | 0 mm | - | 182 W/m² | - |
| 1777995577 | 28.33° C | 14% | 1007.8 hPa | 0 mm | - | 193 W/m² | - |
| 1777995277 | 28.33° C | 17% | 1007.8 hPa | 0 mm | - | 208 W/m² | - |
| 1777994977 | 28.33° C | 18% | 1007.8 hPa | 0 mm | - | 223 W/m² | - |
| 1777994677 | 27.78° C | 17% | 1007.8 hPa | 0 mm | - | 237 W/m² | - |
| 1777994377 | 28.33° C | 19% | 1007.8 hPa | 0 mm | - | 254 W/m² | - |
| 1777994077 | 28.33° C | 18% | 1007.8 hPa | 0 mm | - | 264 W/m² | - |
| 1777993777 | 28.33° C | 18% | 1007.8 hPa | 0 mm | - | 274 W/m² | - |
| 1777993477 | 28.33° C | 19% | 1007.8 hPa | 0 mm | - | 279 W/m² | - |
| 1777993177 | 28.33° C | 17% | 1007.8 hPa | 0 mm | - | 296 W/m² | - |
| 1777992877 | 28.89° C | 19% | 1007.8 hPa | 0 mm | - | 320 W/m² | - |
| 1777992577 | 28.33° C | 18% | 1007.8 hPa | 0 mm | - | 341 W/m² | - |
| 1777992277 | 28.33° C | 18% | 1008.1 hPa | 0 mm | - | 365 W/m² | - |
| 1777991977 | 27.78° C | 17% | 1008.1 hPa | 0 mm | - | 310 W/m² | - |
| 1777991677 | 28.33° C | 18% | 1008.1 hPa | 0 mm | - | 404 W/m² | - |
| 1777991377 | 28.33° C | 18% | 1008.1 hPa | 0 mm | - | 394 W/m² | - |
| 1777991077 | 27.78° C | 18% | 1008.8 hPa | 0 mm | - | 401 W/m² | - |
| 1777990777 | 28.33° C | 18% | 1008.8 hPa | 0 mm | - | 390 W/m² | - |
| 1777990477 | 28.33° C | 18% | 1008.8 hPa | 0 mm | - | 448 W/m² | - |
| 1777989877 | 28.33° C | 19% | 1008.5 hPa | 0 mm | - | 459 W/m² | - |
| 1777989577 | 28.33° C | 19% | 1008.8 hPa | 0 mm | - | 407 W/m² | - |
| 1777989277 | 28.33° C | 18% | 1008.8 hPa | 0 mm | - | 468 W/m² | - |
* Rain latest hour (hover to see other rain measurements)
** Current wind speed in m/s (hover to see current wind gust speed)